When you browse on this site, cookies collect data to enhance your experience and personalize the content and advertising you see.
Visit our Privacy Policy to learn more. By continuing to use the site, you agree to this use of cookies and data.
  • In Czech Republic
  • List of Countries
  • For 7 days
  • Water Temperature
  • Satellite Maps
  • Weather Map
  • Weather Widgets
  • user-avatar
    Login

    Hourly Weather Kitzbuhel

    Today, 23 March, Saturday

    Time Temperature Precipitation Wind Pressure Humidity
    00:00 +4°C° 0 mm 2 mps 683 mmHg 79%
    01:00 +4°C° 0 mm 2 mps 683 mmHg 78%
    02:00 +4°C° 0 mm 2 mps 683 mmHg 77%
    03:00 +4°C° 0 mm 2 mps 683 mmHg 76%
    04:00 +3°C° 0 mm 2 mps 683 mmHg 75%
    05:00 +4°C° 0 mm 2 mps 683 mmHg 75%
    06:00 +4°C° 0 mm 2 mps 683 mmHg 74%
    07:00 +5°C° 0 mm 1 mps 683 mmHg 73%
    08:00 +7°C° 0 mm 1 mps 683 mmHg 69%
    09:00 +9°C° 0 mm 0 mps 684 mmHg 66%
    10:00 +12°C° 0 mm 0 mps 684 mmHg 62%
    11:00 +13°C° 0 mm 0 mps 684 mmHg 60%
    12:00 +14°C° 0 mm 0 mps 684 mmHg 58%
    13:00 +15°C° 0 mm 1 mps 684 mmHg 56%
    14:00 +15°C° 0 mm 1 mps 683 mmHg 58%
    15:00 +15°C° 0 mm 1 mps 683 mmHg 61%
    16:00 +14°C° 0 mm 1 mps 683 mmHg 63%
    17:00 +12°C° 0 mm 1 mps 682 mmHg 70%
    18:00 +8°C° 0 mm 0 mps 682 mmHg 78%
    19:00 +6°C° 0 mm 0 mps 681 mmHg 86%
    20:00 +7°C° 0 mm 1 mps 682 mmHg 86%
    21:00 +6°C° 0 mm 1 mps 682 mmHg 86%
    22:00 +6°C° 0 mm 1 mps 682 mmHg 86%
    23:00 +6°C° 0 mm 1 mps 682 mmHg 85%

    Tomorrow, 24 March, Sunday

    Time Temperature Precipitation Wind Pressure Humidity
    00:00 +5°C° 0 mm 2 mps 682 mmHg 85%
    01:00 +4°C° 0 mm 2 mps 682 mmHg 84%
    02:00 +4°C° 0 mm 2 mps 682 mmHg 82%
    03:00 +4°C° 0 mm 2 mps 681 mmHg 81%
    04:00 +4°C° 0 mm 2 mps 681 mmHg 80%
    05:00 +4°C° 0 mm 2 mps 681 mmHg 78%
    06:00 +4°C° 0 mm 2 mps 681 mmHg 77%
    07:00 +5°C° 0 mm 2 mps 681 mmHg 75%
    08:00 +8°C° 0 mm 1 mps 681 mmHg 70%
    09:00 +11°C° 0 mm 1 mps 682 mmHg 64%
    10:00 +13°C° 0 mm 0 mps 682 mmHg 59%
    11:00 +14°C° 0 mm 1 mps 681 mmHg 57%
    12:00 +15°C° 0 mm 1 mps 681 mmHg 56%
    13:00 +16°C° 0 mm 1 mps 681 mmHg 54%
    14:00 +15°C° 0 mm 1 mps 680 mmHg 57%
    15:00 +15°C° 0 mm 1 mps 680 mmHg 61%
    16:00 +14°C° 0 mm 2 mps 679 mmHg 64%
    17:00 +12°C° 0.1 mm 1 mps 679 mmHg 74%
    18:00 +10°C° 0.1 mm 1 mps 679 mmHg 83%
    19:00 +8°C° 0.1 mm 1 mps 679 mmHg 93%
    20:00 +8°C° 0.2 mm 1 mps 679 mmHg 94%
    21:00 +8°C° 0.2 mm 1 mps 679 mmHg 95%
    22:00 +7°C° 0.2 mm 1 mps 680 mmHg 96%
    23:00 +7°C° 0.2 mm 1 mps 680 mmHg 96%

    Day after tomorrow, 25 March, Monday

    Time Temperature Precipitation Wind Pressure Humidity
    00:00 +7°C° 0.2 mm 1 mps 679 mmHg 97%
    01:00 +6°C° 0.2 mm 1 mps 679 mmHg 98%
    02:00 +6°C° 0.1 mm 1 mps 679 mmHg 98%
    03:00 +6°C° 0.1 mm 1 mps 678 mmHg 97%
    04:00 +5°C° 0.1 mm 1 mps 678 mmHg 97%
    05:00 +5°C° 0.2 mm 1 mps 678 mmHg 97%
    06:00 +6°C° 0.2 mm 1 mps 678 mmHg 96%
    07:00 +6°C° 0.2 mm 1 mps 678 mmHg 96%
    08:00 +6°C° 0.5 mm 1 mps 678 mmHg 95%
    09:00 +5°C° 0.5 mm 2 mps 678 mmHg 93%
    10:00 +5°C° 0.5 mm 2 mps 678 mmHg 92%
    11:00 +5°C° 0.5 mm 2 mps 678 mmHg 92%
    12:00 +5°C° 0.5 mm 2 mps 677 mmHg 92%
    13:00 +4°C° 0.5 mm 2 mps 677 mmHg 92%
    14:00 +4°C° 0.3 mm 2 mps 677 mmHg 90%
    15:00 +4°C° 0.3 mm 2 mps 677 mmHg 87%
    16:00 +3°C° 0.3 mm 3 mps 677 mmHg 85%
    17:00 +2°C° 0.8 mm 3 mps 677 mmHg 88%
    18:00 +1°C° 0.8 mm 3 mps 678 mmHg 91%
    19:00 0°C° 0.8 mm 3 mps 678 mmHg 94%
    20:00 -1°C° 0.7 mm 3 mps 679 mmHg 94%
    21:00 -2°C° 0.7 mm 2 mps 680 mmHg 93%
    22:00 -2°C° 0.7 mm 2 mps 680 mmHg 93%
    23:00 -3°C° 0.3 mm 2 mps 681 mmHg 93%

    26 March, Tuesday

    Time Temperature Precipitation Wind Pressure Humidity
    00:00 -3°C° 0.3 mm 2 mps 681 mmHg 93%
    01:00 -3°C° 0.3 mm 2 mps 681 mmHg 94%
    02:00 -3°C° 0.4 mm 2 mps 682 mmHg 94%
    03:00 -3°C° 0.4 mm 2 mps 682 mmHg 94%
    04:00 -3°C° 0.4 mm 2 mps 682 mmHg 94%
    05:00 -3°C° 0.3 mm 2 mps 683 mmHg 94%
    06:00 -3°C° 0.3 mm 2 mps 683 mmHg 93%
    07:00 -1°C° 0.3 mm 1 mps 684 mmHg 92%
    08:00 0°C° 0.1 mm 1 mps 684 mmHg 87%
    09:00 -1°C° 0.1 mm 2 mps 684 mmHg 82%
    10:00 +1°C° 0.1 mm 2 mps 684 mmHg 77%
    11:00 +3°C° 0.1 mm 1 mps 684 mmHg 75%
    12:00 +3°C° 0.1 mm 1 mps 684 mmHg 73%
    13:00 +4°C° 0.1 mm 1 mps 684 mmHg 71%
    14:00 +4°C° 0 mm 1 mps 683 mmHg 70%
    15:00 +4°C° 0 mm 1 mps 683 mmHg 70%
    16:00 +4°C° 0 mm 1 mps 683 mmHg 69%
    17:00 +2°C° 0 mm 1 mps 683 mmHg 75%
    18:00 0°C° 0 mm 1 mps 683 mmHg 81%
    19:00 -2°C° 0 mm 0 mps 683 mmHg 87%
    20:00 -2°C° 0 mm 1 mps 684 mmHg 87%
    21:00 -2°C° 0 mm 1 mps 684 mmHg 86%
    22:00 -2°C° 0 mm 1 mps 684 mmHg 86%
    23:00 -2°C° 0 mm 1 mps 684 mmHg 84%

    27 March, Wednesday

    Time Temperature Precipitation Wind Pressure Humidity
    00:00 -2°C° 0 mm 1 mps 684 mmHg 83%
    01:00 -3°C° 0 mm 1 mps 684 mmHg 82%
    02:00 -3°C° 0 mm 1 mps 684 mmHg 80%
    03:00 -3°C° 0 mm 1 mps 684 mmHg 79%
    04:00 -3°C° 0 mm 1 mps 684 mmHg 78%
    05:00 -2°C° 0 mm 1 mps 684 mmHg 76%
    06:00 -2°C° 0 mm 1 mps 684 mmHg 74%
    07:00 -1°C° 0 mm 1 mps 684 mmHg 72%
    08:00 +1°C° 0 mm 1 mps 685 mmHg 66%
    09:00 +4°C° 0 mm 1 mps 685 mmHg 60%
    10:00 +6°C° 0 mm 1 mps 685 mmHg 54%
    11:00 +7°C° 0 mm 1 mps 685 mmHg 55%
    12:00 +7°C° 0 mm 1 mps 684 mmHg 55%
    13:00 +8°C° 0 mm 1 mps 684 mmHg 56%
    14:00 +7°C° 0 mm 1 mps 684 mmHg 59%
    15:00 +7°C° 0 mm 1 mps 684 mmHg 63%
    16:00 +6°C° 0 mm 1 mps 683 mmHg 66%
    17:00 +5°C° 0.1 mm 1 mps 683 mmHg 74%
    18:00 +4°C° 0.1 mm 1 mps 684 mmHg 81%
    19:00 +1°C° 0.1 mm 0 mps 684 mmHg 89%
    20:00 +2°C° 0.1 mm 1 mps 684 mmHg 90%
    21:00 +2°C° 0.1 mm 1 mps 684 mmHg 90%
    22:00 +2°C° 0.1 mm 1 mps 684 mmHg 91%
    23:00 +1°C° 0.1 mm 1 mps 684 mmHg 91%

    28 March, Thursday

    Time Temperature Precipitation Wind Pressure Humidity
    00:00 +1°C° 0.1 mm 1 mps 684 mmHg 91%
    01:00 +1°C° 0.1 mm 1 mps 684 mmHg 90%
    02:00 +1°C° 0 mm 1 mps 684 mmHg 90%
    03:00 +1°C° 0 mm 1 mps 684 mmHg 90%
    04:00 +1°C° 0 mm 1 mps 684 mmHg 90%
    05:00 +1°C° 0 mm 1 mps 684 mmHg 88%
    06:00 +1°C° 0 mm 1 mps 684 mmHg 87%
    07:00 +2°C° 0 mm 1 mps 684 mmHg 85%
    08:00 +3°C° 0 mm 1 mps 685 mmHg 82%
    09:00 +5°C° 0 mm 1 mps 685 mmHg 78%
    10:00 +7°C° 0 mm 1 mps 685 mmHg 75%
    11:00 +7°C° 0.1 mm 1 mps 685 mmHg 75%
    12:00 +7°C° 0.1 mm 1 mps 685 mmHg 76%
    13:00 +8°C° 0.1 mm 1 mps 684 mmHg 77%
    14:00 +8°C° 0 mm 1 mps 684 mmHg 77%
    15:00 +8°C° 0 mm 1 mps 684 mmHg 77%
    16:00 +7°C° 0 mm 1 mps 684 mmHg 78%
    17:00 +6°C° 0 mm 1 mps 684 mmHg 83%
    18:00 +4°C° 0 mm 1 mps 684 mmHg 89%
    19:00 +2°C° 0 mm 1 mps 684 mmHg 94%
    20:00 +2°C° 0 mm 1 mps 684 mmHg 94%
    21:00 +2°C° 0 mm 1 mps 685 mmHg 93%
    22:00 +1°C° 0 mm 1 mps 685 mmHg 92%
    23:00 +1°C° 0 mm 1 mps 685 mmHg 91%
    Show more